Location: ??
(35.5653°N, 139.6194°E)
Time: 21:14:22
(UTC+00:00)

Radarsat Rocket - Pass Details

Date: 20 November 2019
Orbit: 933 x 1492 km, 100.6° (Epoch: 13 December)

Event Time Altitude Azimuth Distance (km) Brightness Sun altitude
Rises 20:43:50 0° 13° (NNE) 3,594 6.9 -8.1°
Reaches altitude 10° 20:46:13 10° 13° (NNE) 2,649 6.2 -7.7°
Maximum altitude 20:52:02 81° 288° (WNW) 977 4.0 -6.5°
Drops below altitude 10° 20:58:13 10° 201° (SSW) 2,798 6.4 -5.4°
Sets 21:00:47 0° 200° (SSW) 3,810 7.1 -4.9°
